This demonstration page uses our WeatherBlox Daily Observations layout. Learn more.

Left ArrowRight Arrow

44.8408, -93.29828

Hourly Observations for November 4, 2020

Temp ( °F °C ) Dew Point ( °F °C ) Humidity (%) Winds ( mph kmh ) Pressure ( in mb ) Visibility ( mi km ) Precip ( " mm )
12:53 am 00:53 Clear 50 10 37 2.8 61 61 Calm 29.83 1010 10 16 0.00 0.00
1:53 am 01:53 Clear 50 10 37 2.8 61 61 Calm 29.83 1010 10 16 0.00 0.00
2:53 am 02:53 Clear 48 8.9 37 2.8 66 66 S 3 6 29.83 1010 10 16 0.00 0.00
3:53 am 03:53 Clear 46 7.8 37 2.8 71 71 SSW 5 7 29.84 1011 10 16 0.00 0.00
4:53 am 04:53 Clear 44 6.7 35 1.7 71 71 S 3 6 29.85 1011 10 16 0.00 0.00
5:53 am 05:53 Clear 44 6.7 36 2.2 73 73 S 3 6 29.86 1011 10 16 0.00 0.00
6:53 am 06:53 Clear 44 6.7 36 2.2 73 73 SSW 3 6 29.88 1012 9 14 0.00 0.00
7:53 am 07:53 Sunny 45 7.2 36 2.2 71 71 Calm 29.90 1012 10 16 0.00 0.00
8:53 am 08:53 Sunny 49 9.4 38 3.3 66 66 SSW 3 6 29.91 1013 10 16 0.00 0.00
9:53 am 09:53 Sunny 55 12.8 37 2.8 51 51 SSW 6 9 29.91 1013 10 16 0.00 0.00
10:53 am 10:53 Sunny 60 15.6 37 2.8 42 42 SW 6 9 29.91 1013 10 16 0.00 0.00
11:53 am 11:53 Sunny 66 18.9 37 2.8 34 34 SW 5 7 29.89 1012 10 16 0.00 0.00
12:53 pm 12:53 Sunny 70 21.1 36 2.2 29 29 SW 8 13 29.88 1012 10 16 0.00 0.00
1:53 pm 13:53 Sunny 72 22.2 35 1.7 26 26 SW 8 13 29.88 1012 10 16 0.00 0.00
2:53 pm 14:53 Sunny 73 22.8 34 1.1 24 24 WSW 9 15 29.88 1012 10 16 0.00 0.00
3:53 pm 15:53 Sunny 72 22.2 36 2.2 27 27 SW 7 11 29.89 1012 10 16 0.00 0.00
4:53 pm 16:53 Sunny 70 21.1 36 2.2 29 29 SSW 6 9 29.90 1013 10 16 0.00 0.00
5:53 pm 17:53 Clear 67 19.4 36 2.2 32 32 SSW 5 7 29.91 1013 10 16 0.00 0.00
6:53 pm 18:53 Clear 65 18.3 37 2.8 36 36 SW 7 11 29.92 1013 10 16 0.00 0.00
7:53 pm 19:53 Clear 62 16.7 37 2.8 40 40 SW 6 9 29.92 1013 10 16 0.00 0.00
8:53 pm 20:53 Clear 60 15.6 37 2.8 42 42 SW 7 11 29.93 1014 10 16 0.00 0.00
9:53 pm 21:53 Clear 60 15.6 36 2.2 41 41 WSW 6 9 29.95 1014 10 16 0.00 0.00
10:53 pm 22:53 Partly Cloudy 54 12.2 36 2.2 51 51 Calm 29.97 1015 10 16 0.00 0.00
11:53 pm 23:53 Partly Cloudy 54 12.2 36 2.2 51 51 WSW 3 6 29.98 1015 10 16 0.00 0.00

Powered by AerisWeather